Location: Newark
(37.4167°N, 6.2889°W)
Time: 16:08:03
(UTC+00:00)

Envisat - Visible Passes

Search period start: 22 October 2019 00:00
Search period end: 01 November 2019 00:00
Orbit: 764 x 766 km, 98.1° (Epoch: 22 October)

Date Brightness Start Highest point End Pass type
(mag) Time Alt. Az. Time Alt. Az. Time Alt. Az.
22 Oct 5.5 19:35:38 10° SW 19:39:31 22° W 19:43:25 10° NW visible
23 Oct 6.2 06:07:53 10° NE 06:10:51 15° E 06:13:48 10° SE visible
23 Oct 3.9 18:57:39 10° S 19:02:34 51° W 19:07:30 10° NNW visible
24 Oct 2.9 18:20:46 10° SSE 18:25:48 70° ENE 18:30:52 10° N visible
24 Oct 6.2 20:03:29 10° WSW 20:05:16 12° W 20:07:03 10° WNW visible
25 Oct 5.1 19:23:52 10° SSW 19:28:10 28° W 19:32:31 10° NW visible
26 Oct 6.5 05:57:41 10° ENE 05:59:28 12° E 06:01:15 10° ESE visible
26 Oct 3.4 18:46:15 10° S 18:51:16 66° W 18:56:20 10° NNW visible
27 Oct 3.1 18:09:38 10° SSE 18:14:34 54° ENE 18:19:31 10° N visible
27 Oct 5.9 19:50:55 10° SW 19:53:53 15° W 19:56:51 10° NW visible
28 Oct 4.6 19:12:13 10° SSW 19:16:51 36° W 19:21:30 10° NNW visible
29 Oct 3.0 18:34:56 10° SSE 18:40:00 84° WSW 18:45:07 10° NNW visible
30 Oct 3.4 17:58:36 10° SE 18:03:21 42° ENE 18:08:08 10° N visible
30 Oct 5.6 19:38:51 10° SW 19:42:31 20° W 19:46:12 10° NW visible
31 Oct 6.1 06:10:35 10° NE 06:13:51 17° E 06:17:07 10° SE visible
31 Oct 4.1 19:00:41 10° S 19:05:32 46° W 19:10:26 10° NNW visible
